Wenatchee, WA
on Wednesday, January 2, 2013

Wednesday
Previous Day Next Day
Daily Summary
 ActualAverageRecord
Temperature
Mean Temperature °F 26°F  
Max Temperature 28°F 31°F 48°F (2007)
Min Temperature 10°F 20°F -2°F (1969)
Degree Days
Heating Degree Days 46 39  
Month to date heating degree days 96 79  
Since 1 July heating degree days 2759 3177  
Cooling Degree Days 0 0  
Month to date cooling degree days 0 0  
Year to date cooling degree days 0 0  
Moisture
Dew Point 19°F   
Average Humidity 80    
Maximum Humidity 85    
Minimum Humidity 75    
Precipitation
Precipitation 0.00 in 0.07 in 0.23 in (2003)
Month to date precipitation T 0.14  
Year to date precipitation T 0.14  
Snow
Snow 0.00 in 0.60 in in ()
Month to date snowfall T 1.2  
Since 1 July snowfall 30.3 26.1  
Snow Depth 6.00 in   
Wind
Wind Speed 3 mph   
Max Wind Speed 7 mph   
Max Gust Speed mph   
Visibility 10 miles   
Events     

Key: T is trace of precipitation, MM is missing value
Source: NWS Daily Summary
Time(PST)TemperatureDew PointHumidity Pressure Visibility Wind DirectionWind SpeedGust SpeedPrecipitationEvents Conditions
12:21 AM 24.8°F 19.4°F 80% 30.62 in 10.0 miles West 5.8 mph - N/A   Overcast
12:55 AM 24.1°F 19.0°F 81% 30.67 in 10.0 miles Calm Calm - N/A   Overcast
1:45 AM 24.8°F 19.4°F 80% 30.61 in 10.0 miles Calm Calm - N/A   Overcast
1:55 AM 23.0°F 19.0°F 85% 30.67 in 10.0 miles Calm Calm - N/A   Overcast
2:55 AM 23.0°F 18.0°F 81% 30.67 in 10.0 miles Calm Calm - N/A   Overcast
4:07 AM 23.0°F 17.6°F 80% 30.61 in 10.0 miles West 3.5 mph - N/A   Overcast
4:55 AM 24.1°F 17.1°F 75% 30.66 in 10.0 miles Calm Calm - N/A   Overcast
5:55 AM 23.0°F 17.1°F 78% 30.65 in 10.0 miles NW 3.5 mph - N/A   Overcast
6:55 AM 23.0°F 17.1°F 78% 30.65 in 10.0 miles West 3.5 mph - N/A   Overcast
7:08 AM 23.0°F 17.6°F 80% 30.60 in 10.0 miles West 3.5 mph - N/A   Overcast
7:55 AM 23.0°F 18.0°F 81% 30.65 in 10.0 miles WSW 3.5 mph - N/A   Overcast
8:55 AM 23.0°F 18.0°F 81% 30.66 in 10.0 miles West 3.5 mph - N/A   Overcast
9:55 AM 23.0°F 19.0°F 85% 30.67 in 10.0 miles NNW 4.6 mph - N/A   Overcast
10:08 AM 24.8°F 19.4°F 80% 30.61 in 10.0 miles North 4.6 mph - N/A   Overcast
10:55 AM 24.1°F 19.0°F 81% 30.66 in 10.0 miles NW 3.5 mph - N/A   Overcast
11:55 AM 24.1°F 19.0°F 81% 30.64 in 10.0 miles WNW 3.5 mph - N/A   Overcast
12:55 PM 25.0°F 19.0°F 78% 30.63 in 10.0 miles WNW 3.5 mph - N/A   Overcast
1:55 PM 25.0°F 18.0°F 75% 30.62 in 10.0 miles NW 3.5 mph - N/A   Overcast
2:55 PM 25.0°F 19.0°F 78% 30.62 in 10.0 miles Calm Calm - N/A   Overcast
3:55 PM 25.0°F 19.0°F 78% 30.62 in 10.0 miles Calm Calm - N/A   Overcast
4:55 PM 24.1°F 19.0°F 81% 30.62 in 10.0 miles West 3.5 mph - N/A   Overcast
5:55 PM 24.1°F 19.0°F 81% 30.61 in 10.0 miles Calm Calm - N/A   Overcast
6:55 PM 24.1°F 19.0°F 81% 30.61 in 10.0 miles Calm Calm - N/A   Overcast
7:55 PM 24.1°F 19.0°F 81% 30.59 in 10.0 miles NW 4.6 mph - N/A   Overcast
8:55 PM 24.1°F 19.0°F 81% 30.58 in 10.0 miles Calm Calm - N/A   Overcast
9:55 PM 24.1°F 19.0°F 81% 30.58 in 10.0 miles Calm Calm - N/A   Overcast
10:55 PM 24.1°F 18.0°F 77% 30.57 in 10.0 miles WNW 3.5 mph - N/A   Overcast
11:55 PM 24.1°F 19.0°F 81% 30.55 in 10.0 miles West 6.9 mph - N/A   Overcast
Moon Phase
Jan. 02 Jan. 04 Jan. 11 Jan. 18 Jan. 26
Sunrise:07:48 AM (PST) Moon Rise:10:25 PM (PST)
Sunset:04:22 PM (PST) Moon Set:10:09 AM (PST)

Copyright © 2014 The Weather Underground, Inc.